Regional Weather Roundup
Issued by NWS

Home | Current Version | Previous Version | Graphics & Text | Print | Product List | Glossary On
Versions: 1 2 3 4 5 6 7 8 9 10 11 12 13 14 15 16 17 18 19 20 21 22 23 24 25 26 27 28 29 30 31 32 33 34 35 36 37 38 39 40 41 42 43 44 45 46 47 48 49 50
000
ASUS43 KIND 201859
RWRIN

WEATHER ROUNDUP FOR INDIANA
NATIONAL WEATHER SERVICE INDIANAPOLIS IN
300 PM EDT SAT SEP 20 2014

NOTE: "FAIR" INDICATES FEW OR NO CLOUDS BELOW 12,000 FEET WITH NO
SIGNIFICANT WEATHER AND/OR OBSTRUCTIONS TO VISIBILITY.

* - STATION DOES NOT REPORT WEATHER SUCH AS PRECIPITATION OR FOG.

+ - STATION NOT QUALITY CONTROLLED BY THE NATIONAL WEATHER SERVICE.
    USE DATA WITH CAUTION...ESPECIALLY DEWPOINT AND RELATIVE
    HUMIDITY OBSERVATIONS.

INZ001>003-010>013-019-020-202000-
NORTHWEST INDIANA

CITY           SKY/WX    TMP DP  RH WIND       PRES   REMARKS
GARY /AIRPORT/ PTSUNNY   81  64  57 SW17G33   29.85F
VALPARAISO     PTSUNNY   81  64  56 SW18G28   29.87F

$$

LMZ046-743>745-202000-
SOUTHERN LAKE MICHIGAN

STATION/POSITION TIME  TEMP WIND        PRES
                       AIR  DIR/SP/G
                 (UTC) (F)  (DEG/KT/KT) (MB)
MICHIGAN CITY    1800   76  190/ 23/ 28   N/A

$$

INZ004-005-014>016-021>024-202000-
NORTH CENTRAL INDIANA

CITY           SKY/WX    TMP DP  RH WIND       PRES   REMARKS
GOSHEN         MOSUNNY   79  64  60 SW18G26   29.87F
SOUTH BEND     PTSUNNY   80  64  58 SW17G23   29.86F

$$

INZ006>009-017-018-025>027-202000-
NORTHEAST INDIANA

CITY           SKY/WX    TMP DP  RH WIND       PRES   REMARKS
ANGOLA *+      SUNNY     81  75  83 SW17      29.88F
FORT WAYNE     PTSUNNY   79  63  57 SW15G26   29.92F

$$

INZ028-029-035-036-043>045-051>053-202000-
WEST CENTRAL INDIANA

CITY           SKY/WX    TMP DP  RH WIND       PRES   REMARKS
GREENCASTLE +  PTSUNNY   77  64  65 S6        29.98F
LAFAYETTE      PTSUNNY   79  64  60 S14G25    29.90F
TERRE HAUTE    PTSUNNY   80  66  62 SW15      29.96F

$$

INZ030>032-037>040-046>048-054>057-064-065-202000-
CENTRAL INDIANA

CITY           SKY/WX    TMP DP  RH WIND       PRES   REMARKS
ANDERSON       SUNNY     77  59  53 SW15G22   29.97F
INDIANAPOLIS   CLOUDY    77  64  64 SW14      29.97
-EAGLE CREEK   MOSUNNY   79  62  56 SW12G20   29.96F
KOKOMO *+      MOSUNNY   81  63  54 SW16G26   29.93F
MT COMFORT *+  PTSUNNY   79  52  38 SW17      29.98F
SHELBYVILLE    PTSUNNY   82  63  52 SW16      29.98F

$$

INZ033-034-041-042-049-050-058-059-202000-
EAST CENTRAL INDIANA

CITY           SKY/WX    TMP DP  RH WIND       PRES   REMARKS
MUNCIE         MOSUNNY   79  60  52 SW13G21   29.95F

$$

INZ060-061-067>069-081>083-085>088-202000-
SOUTHWEST INDIANA

CITY           SKY/WX    TMP DP  RH WIND       PRES   REMARKS
EVANSVILLE     PTSUNNY   85  64  49 SW15      30.01F

$$

INZ062-063-066-070>080-084-089>092-202000-
SOUTH CENTRAL AND SOUTHEAST INDIANA

CITY           SKY/WX    TMP DP  RH WIND       PRES   REMARKS
BLOOMINGTON    PTSUNNY   80  66  62 SW9G20    29.99F

$$




USA.gov is the U.S. government's official web portal to all federal, state and local government web resources and services.